Location: *
(28.2408°N, 53.4600°E)
Time: 09:47:31
(UTC+00:00)

Lacrosse 5 - Pass Details

Date: 22 September 2019
Orbit: 715 x 724 km, 57.0° (Epoch: 16 October)

Event Time Altitude Azimuth Distance (km) Brightness Sun altitude
Rises 16:32:35 0° 225° (SW) 3,106 5.5 -28.9°
Reaches altitude 10° 16:34:59 10° 230° (SW) 2,188 4.7 -29.4°
Enters shadow 16:39:16 51° 278° (W) 891 2.5 -30.3°
